Regional Weather Roundup
Issued by NWS

Home | Current Version | Previous Version | Text Only | Print | Product List | Glossary On
Versions: 1 2 3 4 5 6 7 8 9 10 11 12 13 14 15 16 17 18 19 20 21 22 23 24 25 26 27 28 29 30 31 32 33 34 35 36 37 38 39 40 41 42 43 44 45 46 47 48 49 50
000
ASUS43 KMPX 021410
RWRMN
WEATHER ROUNDUP FOR MINNESOTA
NATIONAL WEATHER SERVICE TWIN CITIES/CHANHASSEN MN
900 AM CDT WED SEP 02 2015


NOTE: "FAIR" INDICATES FEW OR NO CLOUDS BELOW 12,000 FEET WITH NO
SIGNIFICANT WEATHER AND/OR OBSTRUCTIONS TO VISIBILITY. N/A MEANS
CURRENT SKY AND/OR WEATHER CONDITIONS ARE NOT AVAILABLE.

MNZ060>063-068>070-021500-
   Twin Cities Metro

CITY           SKY/WX    TMP DP  RH WIND       PRES   REMARKS
TWIN CITIES    CLOUDY    72  67  84 E10       29.92F
ST PAUL        CLOUDY    71  68  90 SE8       29.93F
CRYSTAL        MOSUNNY   73  68  84 SE7       29.91S
BLAINE         CLOUDY    72  70  94 E7        29.92S
LAKEVILLE      CLOUDY    68  68 100 E3        29.93S
EDEN PRAIRIE   CLOUDY    72  68  87 E7        29.91F
SOUTH ST PAUL  CLOUDY    71  68  89 SE3       29.93S
LAKE ELMO      CLOUDY    70  70 100 E5        29.95F
$$
MNZ001>005-007-008-013>017-022>024-027-028-021500-
   Northwest Minnesota

CITY           SKY/WX    TMP DP  RH WIND       PRES   REMARKS
BEMIDJI        SUNNY     71  68  90 S6        29.91S
HALLOCK        CLOUDY    72  68  88 S15       29.83S
ROSEAU         SUNNY     72  66  83 S7        29.87S
WARROAD        SUNNY     70  64  83 S3        29.88S
THIEF RVR FALL SUNNY     72  68  88 S10       29.86F
CROOKSTON      SUNNY     72  66  83 S14       29.85S
FOSSTON        SUNNY     70  64  83 S7        29.89F
DETROIT LAKES  SUNNY     70  64  83 SE9       29.90F
MOORHEAD       SUNNY     70  63  78 SE9       29.86S
PARK RAPIDS    FOG       69  68  96 SE6       29.91F VSB 1
MAHNOMEN       FAIR      72  65  81 SE7       29.88S
$$
MNZ006-009>011-018-025>026-021500-
   North Central Minnesota

CITY           SKY/WX    TMP DP  RH WIND       PRES   REMARKS
BAUDETTE       SUNNY     67  60  78 SE5       29.89F
FLAG ISLAND    SUNNY     70  63  78 S13       29.87F
INTL FALLS     PTSUNNY   64  60  87 SE6       29.94R
WASKISH        SUNNY     73  70  88 CALM      29.90S
BIG FORK       PTSUNNY   70  66  88 CALM      29.94S FOG
LONGVILLE      FAIR      72  70  94 CALM      29.92F FOG
GRAND RAPIDS     N/A     72  68  88 SW3       29.94S
CRANE LAKE     MOSUNNY   59  57  94 NE1       29.97S
ORR            MOSUNNY   64  61  88 CALM      29.93S
COOK           MOSUNNY   68  61  77 E6        29.95F
WALKER         FAIR      70  68  95 CALM      29.91F
$$
MNZ012-019>021-037-021500-
   Northeast Minnesota

CITY           SKY/WX    TMP DP  RH WIND       PRES   REMARKS
DULUTH         LGT RAIN  66  63  90 S7        30.01R FOG
ELY            CLOUDY    61  57  88 S9        29.99S
HIBBING        TSTM      67  64  90 SE15G24   29.96S FOG
EVELETH        CLOUDY    64  63  94 NE6       29.99R
DULUTH HARBOR  CLOUDY    61  59  94 E5        29.99R
TWO HARBORS    CLOUDY    70  64  83 NE6       30.00R
SILVER BAY     TSTM      66  64  94 CALM      30.01F
GRAND MARAIS     N/A     56  52  86 N3        29.97S
G MARAIS ARPRT CLOUDY    57  52  82 CALM      30.04R
$$
MNZ029>031-032-039>041-046>048-054>057-064-021500-
   West Central Minnesota

CITY           SKY/WX    TMP DP  RH WIND       PRES   REMARKS
FERGUS FALLS   SUNNY     72  64  78 SE12      29.86F
WHEATON        SUNNY     64  63  94 E13       29.86F
MORRIS         SUNNY     70  64  83 SE9       29.86F
ALEXANDRIA     SUNNY     70  65  84 SE10      29.92S
ELBOW LAKE     FAIR      69  64  84 SE9       29.87F
WADENA         CLOUDY    66  66 100 SE3       29.90F FOG
GLENWOOD       SUNNY     70  64  83 E7        29.91F
APPLETON       SUNNY     72  64  78 SE7       29.86S
BENSON         SUNNY     72  63  73 SE6       29.88S
ORTONVILLE     SUNNY     66  64  94 SE9       29.85F
MADISON        SUNNY     68  66  94 SE8       29.85F
WILLMAR        FAIR      72  66  83 SE7       29.90S
$$
MNZ033>034-036-042>043-049>051-058-059-021500-
   Central Minnesota

CITY           SKY/WX    TMP DP  RH WIND       PRES   REMARKS
ST CLOUD       CLOUDY    69  66  90 SE7       29.91S
SAUK CENTRE    FAIR      69  64  84 SE7       29.91S
PAYNESVILLE    SUNNY     71  64  80 NE6       29.91F
AITKIN         MOSUNNY   75  66  73 CALM      29.91F
PINE RIVER     FOG       70  70 100 CALM      29.96S VSB<1/4
BRAINERD       MOSUNNY   72  64  76 SE5       29.92S
STAPLES        SUNNY     70  70 100 E3        29.91S FOG
LONG PRAIRIE   FAIR      68  64  88 SE7       29.92S
LITTLE FALLS   SUNNY     70  63  78 SE7       29.91S
LITCHFIELD     SUNNY     72  70  94 E6        29.91S
BUFFALO        CLOUDY    69  66  90 E5        29.92F
MAPLE LAKE     CLOUDY    70  68  95 SE6       29.92F
$$
MNZ037-044-045-052-053-021500-
   East Central Minnesota

CITY           SKY/WX    TMP DP  RH WIND       PRES   REMARKS
PRINCETON      CLOUDY    70  66  88 SE5       29.92F
MORA           PTSUNNY   70  63  78 SE5       29.93S
CAMBRIDGE      CLOUDY    72  63  73 SE6       29.91S
RUSH CITY      CLOUDY    68  65  89 E5        29.93S
MOOSE LAKE     PTSUNNY   70  64  83 NE3       29.92F
HINCKLEY       FAIR      72  66  83 SE3       29.92S
CLOQUET        PTSUNNY   66  63  88 E6        29.98S FOG
MCGREGOR       CLOUDY    73  70  88 SE6       29.94F
$$
MNZ071>073-080-081-089-090-097-098-021500-
   Southwest Minnesota

CITY           SKY/WX    TMP DP  RH WIND       PRES   REMARKS
MONTEVIDEO     SUNNY     73  68  83 S6        29.88S
GRANITE FALLS  SUNNY     70  67  92 SE6       29.88F
CANBY          SUNNY     67  65  94 SE5       29.87S FOG
MARSHALL       SUNNY     70  64  83 S6        29.88S
REDWOOD FALLS  SUNNY     72  68  87 S9        29.87F
OLIVIA         SUNNY     68  63  83 SE7       29.87F
PIPESTONE      SUNNY     70  66  88 S9        29.89S FOG
WINDOM         SUNNY     73  68  83 S9G16     29.90F
WORTHINGTON    MOSUNNY   70  64  83 S15       29.91S
JACKSON        SUNNY     72  68  88 S13G20    29.92F
TRACY          SUNNY     72  69  89 S15G21    29.88S
SLAYTON        SUNNY     70  70  99 CALM      29.91S FOG
$$
MNZ065>067-074>077-082>085-091>093-021500-
   South Central Minnesota

CITY           SKY/WX    TMP DP  RH WIND       PRES   REMARKS
MANKATO          N/A    N/A N/A N/A MISG        N/A
NEW ULM        SUNNY     72  70  94 S13       29.89F
ST JAMES       SUNNY     73  70  88 S16       29.91S
FAIRMONT       SUNNY     73  64  73 S13       29.91F
GLENCOE        MOSUNNY   73  70  93 S7        29.90F
FARIBAULT      PTSUNNY   72  68  88 S7        29.93S
OWATONNA       MOSUNNY   72  66  83 SE8       29.94S
WASECA         PTSUNNY   72  68  88 SE6       29.94F
ALBERT LEA     MOSUNNY   72  70  94 SE7       29.94F
$$
MNZ078>079-086>088-094>096-021500-
   Southeast Minnesota

CITY           SKY/WX    TMP DP  RH WIND       PRES   REMARKS
ROCHESTER      CLOUDY    72  69  90 S9        29.96F FOG
RED WING       CLOUDY    70  64  83 CALM      29.95S THUNDER
STANTON        CLOUDY    71  66  85 E3        29.93R
DODGE CENTER   CLOUDY    70  66  88 S6        29.95F
WINONA         CLOUDY    73  70  88 CALM      29.96F
AUSTIN         MOSUNNY   73  70  88 SE3       29.96S
PRESTON        PTSUNNY   69  66  93 S7        29.98F FOG
$$
ABBREVIATIONS USED IN REMARKS
   TC - TEMPERATURES IN CELSIUS
  WCI - WIND CHILL INDEX
   HX - HEAT INDEX
  VSB - VISIBILITY
$$



USA.gov is the U.S. government's official web portal to all federal, state and local government web resources and services.